KAL491 RKSI-VYYY

Flight info

Callsign KAL491
Flight time 5h 11m
Altitude 38000
Route BOPTA3H BOPTA Z51 BEDES Y711 PONIK A593 LAMEN/K0789F280 A593 AKARA/K0785S0840 A593 PUD/K0891S1160 A599 NXD W131 AKDIM A470 DUBGO W134 ELNEX A599 GYA/K0898S1220 R474 TEBAK/K0896F400 R474 MC B465 LAPON/N0483F400 B465 LPB R215 NAN W25 PAE DCT BOMAS RELAP1A
Aircraft B789/H-SDE1E2E3FGHIJ2J3J4J5M1RWXY/LB1D1

Departure

Time 2026-05-06 21:18
Airport Incheon International Airport (RKSI)

Arrival

Time 2026-05-07 02:29
Airport Yangon International Airport (VYYY)
Time Latitude Longitude Altitude Speed Heading
2026-05-06 20:50 37.46430 126.43345 37 ft 0 kts 258°
2026-05-06 21:06 37.46431 126.43350 37 ft 2 kts 258°
2026-05-06 21:07 37.46434 126.43374 37 ft 3 kts 259°
2026-05-06 21:07 37.46438 126.43399 37 ft 3 kts 259°
2026-05-06 21:07 37.46442 126.43424 37 ft 3 kts 260°
2026-05-06 21:07 37.46445 126.43448 35 ft 3 kts 259°
2026-05-06 21:08 37.46451 126.43470 35 ft 3 kts 221°
2026-05-06 21:08 37.46467 126.43481 36 ft 3 kts 194°
2026-05-06 21:08 37.46486 126.43488 35 ft 3 kts 209°
2026-05-06 21:08 37.46501 126.43502 36 ft 3 kts 236°
2026-05-06 21:09 37.46509 126.43524 35 ft 2 kts 258°
2026-05-06 21:09 37.46512 126.43545 36 ft 3 kts 259°
2026-05-06 21:09 37.46516 126.43569 35 ft 2 kts 259°
2026-05-06 21:09 37.46517 126.43575 36 ft 0 kts 259°
2026-05-06 21:11 37.46509 126.43541 35 ft 8 kts 251°
2026-05-06 21:11 37.46464 126.43478 37 ft 10 kts 193°
2026-05-06 21:11 37.46404 126.43508 37 ft 12 kts 147°
2026-05-06 21:12 37.46313 126.43587 37 ft 19 kts 144°
2026-05-06 21:12 37.46218 126.43669 37 ft 11 kts 158°
2026-05-06 21:12 37.46176 126.43650 37 ft 9 kts 227°
2026-05-06 21:12 37.46113 126.43538 37 ft 21 kts 235°
2026-05-06 21:13 37.46025 126.43380 37 ft 23 kts 235°
2026-05-06 21:13 37.45931 126.43217 38 ft 23 kts 234°
2026-05-06 21:13 37.45877 126.43092 38 ft 11 kts 274°
2026-05-06 21:13 37.45920 126.43033 38 ft 13 kts 322°
2026-05-06 21:14 37.46024 126.42939 36 ft 23 kts 324°
2026-05-06 21:14 37.46180 126.42801 36 ft 31 kts 325°
2026-05-06 21:14 37.46356 126.42645 37 ft 30 kts 325°
2026-05-06 21:14 37.46531 126.42489 38 ft 32 kts 324°
2026-05-06 21:15 37.46717 126.42322 37 ft 33 kts 324°
2026-05-06 21:15 37.46901 126.42158 37 ft 32 kts 325°
2026-05-06 21:15 37.47081 126.41998 37 ft 31 kts 324°
2026-05-06 21:15 37.47249 126.41848 38 ft 25 kts 325°
2026-05-06 21:16 37.47337 126.41767 38 ft 12 kts 311°
2026-05-06 21:16 37.47328 126.41686 38 ft 11 kts 232°
2026-05-06 21:16 37.47268 126.41596 39 ft 12 kts 211°
2026-05-06 21:16 37.47216 126.41613 39 ft 11 kts 144°
2026-05-06 21:17 37.47057 126.41754 39 ft 52 kts 145°
2026-05-06 21:17 37.46602 126.42159 39 ft 107 kts 144°
2026-05-06 21:17 37.45854 126.42824 39 ft 154 kts 144°
2026-05-06 21:17 37.44936 126.43654 410 ft 164 kts 141°
2026-05-06 21:18 37.43974 126.44393 1232 ft 159 kts 158°
2026-05-06 21:18 37.42979 126.45049 1937 ft 164 kts 161°
2026-05-06 21:18 37.41899 126.45779 2286 ft 191 kts 156°
2026-05-06 21:18 37.40689 126.46732 2592 ft 218 kts 154°
2026-05-06 21:19 37.39333 126.47818 2875 ft 245 kts 153°
2026-05-06 21:19 37.37771 126.48688 3445 ft 247 kts 175°
2026-05-06 21:19 37.36053 126.49103 4205 ft 258 kts 168°
2026-05-06 21:19 37.34328 126.49825 5022 ft 264 kts 166°
2026-05-06 21:20 37.32550 126.50514 5831 ft 269 kts 169°
2026-05-06 21:20 37.31342 126.50917 6362 ft 272 kts 170°
2026-05-06 21:20 37.28861 126.51719 7437 ft 276 kts 169°
2026-05-06 21:20 37.27073 126.52625 8138 ft 286 kts 150°
2026-05-06 21:21 37.25374 126.53923 8906 ft 287 kts 157°
2026-05-06 21:21 37.23568 126.55027 9687 ft 290 kts 158°
2026-05-06 21:21 37.21757 126.56194 10265 ft 301 kts 156°
2026-05-06 21:21 37.19833 126.57513 10371 ft 329 kts 155°
2026-05-06 21:22 37.18469 126.58455 10391 ft 347 kts 155°
2026-05-06 21:22 37.16283 126.59941 10687 ft 362 kts 155°
2026-05-06 21:22 37.14061 126.61431 11430 ft 362 kts 158°
2026-05-06 21:22 37.10874 126.62489 12234 ft 357 kts 181°
2026-05-06 21:23 37.09203 126.62493 12661 ft 356 kts 185°
2026-05-06 21:23 37.06690 126.62460 12975 ft 366 kts 185°
2026-05-06 21:23 37.04180 126.62430 12980 ft 363 kts 185°
2026-05-06 21:23 37.01657 126.62401 12974 ft 361 kts 185°
2026-05-06 21:24 36.99143 126.62368 12970 ft 361 kts 185°
2026-05-06 21:24 36.96625 126.62421 13125 ft 364 kts 183°
2026-05-06 21:24 36.94107 126.62432 13929 ft 361 kts 185°
2026-05-06 21:24 36.91577 126.62423 14538 ft 365 kts 185°
2026-05-06 21:25 36.89023 126.62453 15144 ft 368 kts 185°
2026-05-06 21:25 36.86498 126.62331 15665 ft 369 kts 188°
2026-05-06 21:25 36.83922 126.62198 16261 ft 371 kts 188°
2026-05-06 21:25 36.81327 126.62069 16811 ft 374 kts 188°
2026-05-06 21:26 36.78724 126.61923 17374 ft 376 kts 189°
2026-05-06 21:26 36.76098 126.61771 17910 ft 378 kts 189°
2026-05-06 21:26 36.73440 126.61851 18322 ft 389 kts 179°
2026-05-06 21:26 36.70764 126.62549 18745 ft 397 kts 171°
2026-05-06 21:27 36.68081 126.63449 19159 ft 400 kts 172°
2026-05-06 21:27 36.65385 126.64348 19604 ft 403 kts 172°
2026-05-06 21:27 36.62671 126.65263 20030 ft 405 kts 172°
2026-05-06 21:27 36.59937 126.66183 20453 ft 408 kts 172°
2026-05-06 21:28 36.57183 126.67106 20846 ft 411 kts 172°
2026-05-06 21:28 36.54447 126.68020 21231 ft 413 kts 172°
2026-05-06 21:28 36.51663 126.68953 21614 ft 416 kts 172°
2026-05-06 21:28 36.48859 126.69892 21999 ft 418 kts 172°
2026-05-06 21:29 36.46038 126.70834 22356 ft 421 kts 172°
2026-05-06 21:29 36.43198 126.71783 22709 ft 423 kts 172°
2026-05-06 21:29 36.40340 126.72736 23052 ft 425 kts 172°
2026-05-06 21:29 36.37465 126.73695 23363 ft 429 kts 172°
2026-05-06 21:30 36.34578 126.74670 23697 ft 431 kts 172°
2026-05-06 21:30 36.31681 126.75656 23945 ft 433 kts 172°
2026-05-06 21:30 36.28790 126.76631 24226 ft 435 kts 172°
2026-05-06 21:30 36.25860 126.77616 24458 ft 437 kts 172°
2026-05-06 21:31 36.22920 126.78604 24714 ft 439 kts 172°
2026-05-06 21:31 36.19959 126.79600 24963 ft 442 kts 172°
2026-05-06 21:31 36.16979 126.80557 25167 ft 440 kts 176°
2026-05-06 21:31 36.13967 126.80955 25406 ft 434 kts 186°
2026-05-06 21:32 36.10971 126.80764 25647 ft 430 kts 191°
2026-05-06 21:32 36.05007 126.80126 26147 ft 434 kts 191°
2026-05-06 21:32 36.01986 126.79792 26412 ft 437 kts 191°
2026-05-06 21:33 35.98948 126.79463 26669 ft 439 kts 191°
2026-05-06 21:33 35.95896 126.79135 26925 ft 440 kts 191°
2026-05-06 21:33 35.92832 126.78805 27182 ft 443 kts 191°
2026-05-06 21:33 35.89764 126.78471 27427 ft 445 kts 191°
2026-05-06 21:34 35.86670 126.78136 27684 ft 447 kts 191°
2026-05-06 21:34 35.83593 126.77802 27920 ft 449 kts 191°
2026-05-06 21:34 35.80469 126.77464 28178 ft 451 kts 191°
2026-05-06 21:34 35.77333 126.77125 28419 ft 453 kts 191°
2026-05-06 21:35 35.74197 126.76786 28689 ft 454 kts 191°
2026-05-06 21:35 35.71036 126.76445 28933 ft 456 kts 191°
2026-05-06 21:35 35.67851 126.76101 29183 ft 458 kts 191°
2026-05-06 21:35 35.64662 126.75757 29437 ft 460 kts 191°
2026-05-06 21:36 35.61469 126.75413 29670 ft 463 kts 191°
2026-05-06 21:36 35.58293 126.75070 29902 ft 464 kts 191°
2026-05-06 21:36 35.55061 126.74725 30206 ft 465 kts 190°
2026-05-06 21:36 35.51832 126.74387 30377 ft 468 kts 191°
2026-05-06 21:37 35.48573 126.74028 30618 ft 469 kts 191°
2026-05-06 21:37 35.45326 126.73673 30851 ft 470 kts 191°
2026-05-06 21:37 35.42046 126.73326 31079 ft 472 kts 191°
2026-05-06 21:37 35.38811 126.72984 31287 ft 473 kts 191°
2026-05-06 21:38 35.35535 126.72632 31522 ft 474 kts 191°
2026-05-06 21:38 35.32242 126.72279 31742 ft 475 kts 191°
2026-05-06 21:38 35.28938 126.71927 31953 ft 477 kts 191°
2026-05-06 21:38 35.25627 126.71575 32163 ft 478 kts 191°
2026-05-06 21:39 35.22305 126.71220 32368 ft 479 kts 191°
2026-05-06 21:39 35.18964 126.70863 32573 ft 480 kts 190°
2026-05-06 21:39 35.15645 126.70511 32887 ft 479 kts 190°
2026-05-06 21:39 35.12327 126.70161 33225 ft 477 kts 190°
2026-05-06 21:40 35.09062 126.69814 33548 ft 476 kts 190°
2026-05-06 21:40 35.05764 126.69462 33873 ft 474 kts 190°
2026-05-06 21:40 35.02465 126.69112 34176 ft 473 kts 190°
2026-05-06 21:40 34.99182 126.68764 34428 ft 473 kts 191°
2026-05-06 21:41 34.95935 126.68420 34657 ft 472 kts 191°
2026-05-06 21:41 34.92668 126.68074 34889 ft 472 kts 191°
2026-05-06 21:41 34.89394 126.67728 35137 ft 471 kts 191°
2026-05-06 21:41 34.86112 126.67381 35375 ft 471 kts 191°
2026-05-06 21:42 34.82855 126.67037 35602 ft 471 kts 191°
2026-05-06 21:42 34.79578 126.66691 35825 ft 470 kts 191°
2026-05-06 21:42 34.76318 126.66347 36074 ft 469 kts 191°
2026-05-06 21:42 34.73105 126.66009 36295 ft 469 kts 191°
2026-05-06 21:43 34.69850 126.65666 36507 ft 469 kts 191°
2026-05-06 21:43 34.66596 126.65323 36700 ft 469 kts 191°
2026-05-06 21:43 34.63343 126.64982 36911 ft 468 kts 191°
2026-05-06 21:43 34.60094 126.64640 37103 ft 468 kts 191°
2026-05-06 21:44 34.56841 126.64298 37231 ft 469 kts 191°
2026-05-06 21:44 34.53584 126.63957 37440 ft 469 kts 191°
2026-05-06 21:44 34.50331 126.63617 37652 ft 468 kts 191°
2026-05-06 21:44 34.47077 126.63276 37803 ft 469 kts 191°
2026-05-06 21:45 34.43865 126.62939 37992 ft 469 kts 191°
2026-05-06 21:45 34.40601 126.62597 38017 ft 472 kts 191°
2026-05-06 21:45 34.34054 126.61917 38011 ft 470 kts 191°
2026-05-06 21:46 34.27546 126.61237 38008 ft 469 kts 191°
2026-05-06 21:46 34.21050 126.60560 38013 ft 469 kts 191°
2026-05-06 21:47 34.14601 126.59888 38018 ft 466 kts 190°
2026-05-06 21:47 34.08132 126.59214 38015 ft 466 kts 190°
2026-05-06 21:48 34.01656 126.58541 38016 ft 466 kts 190°
2026-05-06 21:48 33.95194 126.57870 38021 ft 468 kts 190°
2026-05-06 21:49 33.88681 126.57195 38018 ft 470 kts 190°
2026-05-06 21:49 33.82341 126.55933 38026 ft 459 kts 204°
2026-05-06 21:50 33.76322 126.53341 38016 ft 461 kts 204°
2026-05-06 21:50 33.70271 126.50714 38032 ft 462 kts 204°
2026-05-06 21:51 33.64259 126.48113 38030 ft 459 kts 204°
2026-05-06 21:51 33.58256 126.45515 38020 ft 460 kts 204°
2026-05-06 21:52 33.52193 126.42897 38029 ft 463 kts 204°
2026-05-06 21:52 33.46118 126.40279 38026 ft 462 kts 204°
2026-05-06 21:53 33.40106 126.37691 38020 ft 463 kts 204°
2026-05-06 21:53 33.34026 126.35078 38015 ft 465 kts 204°
2026-05-06 21:54 33.27933 126.32464 38017 ft 464 kts 204°
2026-05-06 21:54 33.21850 126.29857 38021 ft 464 kts 204°
2026-05-06 21:55 33.15778 126.27259 38017 ft 466 kts 204°
2026-05-06 21:55 33.09669 126.24651 38035 ft 465 kts 204°
2026-05-06 21:56 33.03591 126.22058 38026 ft 462 kts 204°
2026-05-06 21:56 32.97549 126.19478 38026 ft 462 kts 205°
2026-05-06 21:57 32.91510 126.16875 38025 ft 462 kts 204°
2026-05-06 21:57 32.85449 126.14282 38005 ft 463 kts 204°
2026-05-06 21:58 32.79407 126.11692 38037 ft 465 kts 204°
2026-05-06 21:58 32.73316 126.09090 38027 ft 465 kts 204°
2026-05-06 21:59 32.67218 126.06486 38029 ft 465 kts 204°
2026-05-06 21:59 32.61125 126.03889 38005 ft 464 kts 204°
2026-05-06 22:00 32.55070 126.01311 38015 ft 464 kts 204°
2026-05-06 22:00 32.49004 125.98733 38012 ft 463 kts 204°
2026-05-06 22:01 32.42931 125.96157 38018 ft 464 kts 205°
2026-05-06 22:01 32.36830 125.93575 38020 ft 466 kts 204°
2026-05-06 22:02 32.30720 125.90992 38026 ft 466 kts 204°
2026-05-06 22:02 32.24660 125.88434 38014 ft 466 kts 205°
2026-05-06 22:03 32.18560 125.85862 38014 ft 466 kts 205°
2026-05-06 22:03 32.12447 125.83290 38015 ft 466 kts 204°
2026-05-06 22:04 32.06605 125.80167 38030 ft 456 kts 218°
2026-05-06 22:04 32.01944 125.75306 38040 ft 448 kts 234°
2026-05-06 22:05 31.98753 125.69090 38035 ft 441 kts 250°
2026-05-06 22:05 31.97010 125.62181 38027 ft 441 kts 256°
2026-05-06 22:06 31.95441 125.55164 38019 ft 443 kts 256°
2026-05-06 22:06 31.93874 125.48133 38022 ft 446 kts 256°
2026-05-06 22:07 31.92296 125.41100 38023 ft 445 kts 256°
2026-05-06 22:07 31.90717 125.34064 38020 ft 443 kts 256°
2026-05-06 22:08 31.89141 125.27075 38015 ft 442 kts 256°
2026-05-06 22:08 31.87558 125.20065 38023 ft 444 kts 256°
2026-05-06 22:09 31.85971 125.13061 38010 ft 447 kts 256°
2026-05-06 22:09 31.84363 125.05984 38014 ft 447 kts 256°
2026-05-06 22:10 31.82755 124.98922 38020 ft 445 kts 256°
2026-05-06 22:10 31.81256 124.91909 38017 ft 445 kts 257°
2026-05-06 22:11 31.79719 124.84826 38020 ft 447 kts 256°
2026-05-06 22:11 31.78180 124.77748 38020 ft 448 kts 257°
2026-05-06 22:12 31.76643 124.70681 37995 ft 447 kts 257°
2026-05-06 22:12 31.75355 124.64800 38006 ft 445 kts 257°
2026-05-06 22:13 31.73814 124.57749 38001 ft 445 kts 257°
2026-05-06 22:13 31.72266 124.50709 38001 ft 444 kts 257°
2026-05-06 22:14 31.70720 124.43687 38010 ft 444 kts 257°
2026-05-06 22:14 31.69171 124.36676 38005 ft 442 kts 257°
2026-05-06 22:15 31.67620 124.29671 38002 ft 443 kts 257°
2026-05-06 22:15 31.66073 124.22707 38003 ft 445 kts 257°
2026-05-06 22:16 31.64504 124.15660 38005 ft 444 kts 257°
2026-05-06 22:16 31.62936 124.08644 37999 ft 442 kts 257°
2026-05-06 22:17 31.61384 124.01711 37996 ft 442 kts 257°
2026-05-06 22:17 31.59840 123.94721 38012 ft 443 kts 257°
2026-05-06 22:18 31.58317 123.87686 38003 ft 445 kts 257°
2026-05-06 22:18 31.56768 123.80659 38006 ft 445 kts 257°
2026-05-06 22:19 31.55228 123.73629 38001 ft 443 kts 257°
2026-05-06 22:19 31.53695 123.66685 37997 ft 442 kts 257°
2026-05-06 22:20 31.52152 123.59701 37991 ft 441 kts 257°
2026-05-06 22:20 31.50607 123.52732 37989 ft 441 kts 257°
2026-05-06 22:21 31.49212 123.45783 37999 ft 441 kts 258°
2026-05-06 22:21 31.47865 123.38747 37969 ft 444 kts 259°
2026-05-06 22:22 31.47193 123.35202 38104 ft 443 kts 259°
2026-05-06 22:22 31.46525 123.31664 38096 ft 446 kts 259°
2026-05-06 22:22 31.45170 123.24590 38089 ft 443 kts 259°
2026-05-06 22:23 31.43834 123.17579 38084 ft 441 kts 259°
2026-05-06 22:23 31.42485 123.10562 38093 ft 441 kts 258°
2026-05-06 22:24 31.41145 123.03596 38089 ft 441 kts 258°
2026-05-06 22:24 31.39791 122.96587 38086 ft 441 kts 258°
2026-05-06 22:25 31.38434 122.89581 38064 ft 441 kts 258°
2026-05-06 22:25 31.37071 122.82567 38079 ft 441 kts 258°
2026-05-06 22:26 31.35716 122.75611 38081 ft 442 kts 258°
2026-05-06 22:26 31.34386 122.68566 38078 ft 443 kts 259°
2026-05-06 22:27 31.33040 122.61538 38094 ft 443 kts 258°
2026-05-06 22:27 31.31693 122.54504 38070 ft 441 kts 258°
2026-05-06 22:28 31.30357 122.47548 38067 ft 440 kts 258°
2026-05-06 22:28 31.29017 122.40554 38046 ft 440 kts 259°
2026-05-06 22:29 31.27717 122.33573 38071 ft 438 kts 259°
2026-05-06 22:29 31.26405 122.26665 38070 ft 438 kts 259°
2026-05-06 22:30 31.25088 122.19693 38069 ft 440 kts 259°
2026-05-06 22:30 31.23755 122.12688 38073 ft 441 kts 258°
2026-05-06 22:31 31.22420 122.05679 38063 ft 441 kts 258°
2026-05-06 22:31 31.21096 121.98760 38062 ft 437 kts 258°
2026-05-06 22:32 31.19766 121.91820 38050 ft 437 kts 258°
2026-05-06 22:32 31.18432 121.84889 38035 ft 436 kts 258°
2026-05-06 22:33 31.17140 121.78011 38042 ft 434 kts 263°
2026-05-06 22:33 31.16381 121.71007 38046 ft 436 kts 263°
2026-05-06 22:34 31.15610 121.63980 38050 ft 437 kts 263°
2026-05-06 22:34 31.14847 121.56932 38053 ft 437 kts 263°
2026-05-06 22:35 31.14075 121.49924 38038 ft 437 kts 263°
2026-05-06 22:35 31.13302 121.42896 38044 ft 435 kts 263°
2026-05-06 22:36 31.12524 121.35895 38039 ft 434 kts 262°
2026-05-06 22:36 31.11012 121.29101 38038 ft 436 kts 255°
2026-05-06 22:37 31.09246 121.22310 38040 ft 437 kts 255°
2026-05-06 22:37 31.07465 121.15505 38042 ft 439 kts 255°
2026-05-06 22:38 31.05798 121.08654 38044 ft 439 kts 255°
2026-05-06 22:38 31.04114 121.01819 38040 ft 437 kts 256°
2026-05-06 22:39 31.02466 120.95043 38036 ft 437 kts 256°
2026-05-06 22:39 31.00779 120.88187 38037 ft 441 kts 256°
2026-05-06 22:40 30.99093 120.81324 38029 ft 439 kts 256°
2026-05-06 22:40 30.97416 120.74524 38027 ft 439 kts 256°
2026-05-06 22:41 30.94907 120.64266 38022 ft 439 kts 256°
2026-05-06 22:42 30.93222 120.57420 38025 ft 439 kts 256°
2026-05-06 22:42 30.91523 120.50562 38025 ft 440 kts 253°
2026-05-06 22:43 30.88813 120.44195 38040 ft 447 kts 238°
2026-05-06 22:43 30.84541 120.38838 38044 ft 458 kts 223°
2026-05-06 22:44 30.79330 120.34480 38038 ft 461 kts 221°
2026-05-06 22:44 30.74090 120.30176 38043 ft 459 kts 221°
2026-05-06 22:45 30.68915 120.25923 38034 ft 457 kts 221°
2026-05-06 22:45 30.63709 120.21653 38032 ft 458 kts 221°
2026-05-06 22:46 30.58479 120.17370 38033 ft 460 kts 221°
2026-05-06 22:46 30.53233 120.13079 38029 ft 460 kts 221°
2026-05-06 22:47 30.48040 120.08837 38028 ft 460 kts 221°
2026-05-06 22:47 30.42753 120.04643 38059 ft 464 kts 215°
2026-05-06 22:48 30.37140 120.00908 38044 ft 465 kts 217°
2026-05-06 22:48 30.31565 119.97187 38046 ft 465 kts 216°
2026-05-06 22:49 30.25949 119.93455 38043 ft 465 kts 216°
2026-05-06 22:49 30.20325 119.89714 38045 ft 465 kts 216°
2026-05-06 22:50 30.14714 119.85993 38051 ft 466 kts 216°
2026-05-06 22:50 30.09106 119.82274 38067 ft 467 kts 217°
2026-05-06 22:51 30.03487 119.78553 38055 ft 463 kts 217°
2026-05-06 22:51 29.97928 119.74791 38053 ft 464 kts 217°
2026-05-06 22:52 29.92375 119.71066 38047 ft 463 kts 217°
2026-05-06 22:52 29.86803 119.67327 38056 ft 463 kts 217°
2026-05-06 22:53 29.81454 119.63266 38060 ft 460 kts 220°
2026-05-06 22:53 29.76117 119.59116 38069 ft 464 kts 221°
2026-05-06 22:54 29.70813 119.54961 38072 ft 463 kts 221°
2026-05-06 22:54 29.65490 119.50815 38063 ft 460 kts 221°
2026-05-06 22:55 29.60819 119.45999 38078 ft 448 kts 234°
2026-05-06 22:55 29.56600 119.40642 38060 ft 453 kts 234°
2026-05-06 22:56 29.52390 119.35264 38058 ft 452 kts 234°
2026-05-06 22:56 29.48192 119.29929 38068 ft 452 kts 234°
2026-05-06 22:57 29.43974 119.24563 38078 ft 452 kts 234°
2026-05-06 22:57 29.39788 119.19246 38060 ft 451 kts 234°
2026-05-06 22:58 29.35569 119.13902 38057 ft 451 kts 234°
2026-05-06 22:58 29.31356 119.08578 38056 ft 451 kts 234°
2026-05-06 22:59 29.27142 119.03261 38065 ft 451 kts 234°
2026-05-06 22:59 29.22939 118.97964 38043 ft 452 kts 233°
2026-05-06 23:00 29.18688 118.92625 38061 ft 453 kts 234°
2026-05-06 23:00 29.14444 118.87294 38059 ft 453 kts 234°
2026-05-06 23:01 29.10186 118.81958 38062 ft 453 kts 234°
2026-05-06 23:01 29.06654 118.77535 38048 ft 453 kts 234°
2026-05-06 23:02 29.02397 118.72214 38068 ft 453 kts 233°
2026-05-06 23:02 28.98124 118.66868 38069 ft 456 kts 233°
2026-05-06 23:03 28.93869 118.61568 38058 ft 453 kts 234°
2026-05-06 23:03 28.89619 118.56268 38056 ft 453 kts 234°
2026-05-06 23:04 28.85356 118.50965 38049 ft 453 kts 233°
2026-05-06 23:04 28.81087 118.45659 38046 ft 455 kts 233°
2026-05-06 23:05 28.76800 118.40342 38046 ft 455 kts 233°
2026-05-06 23:05 28.72542 118.35063 38056 ft 455 kts 233°
2026-05-06 23:06 28.68253 118.29755 38046 ft 454 kts 233°
2026-05-06 23:06 28.63968 118.24458 38022 ft 454 kts 233°
2026-05-06 23:07 28.59706 118.19196 38046 ft 455 kts 233°
2026-05-06 23:07 28.55401 118.13890 38045 ft 456 kts 233°
2026-05-06 23:08 28.51095 118.08587 38046 ft 456 kts 233°
2026-05-06 23:08 28.46812 118.03320 38041 ft 455 kts 233°
2026-05-06 23:09 28.42519 117.98048 38060 ft 453 kts 233°
2026-05-06 23:09 28.38131 117.92843 38058 ft 455 kts 233°
2026-05-06 23:10 28.33773 117.87657 38047 ft 456 kts 232°
2026-05-06 23:10 28.29355 117.82466 38037 ft 455 kts 232°
2026-05-06 23:11 28.24992 117.77312 38053 ft 455 kts 232°
2026-05-06 23:11 28.20590 117.72138 38063 ft 455 kts 232°
2026-05-06 23:12 28.16189 117.66963 38070 ft 455 kts 232°
2026-05-06 23:12 28.11777 117.61782 38066 ft 457 kts 232°
2026-05-06 23:13 28.07382 117.56630 38050 ft 457 kts 232°
2026-05-06 23:13 28.02963 117.51454 38067 ft 455 kts 232°
2026-05-06 23:14 27.98540 117.46275 38050 ft 458 kts 232°
2026-05-06 23:14 27.94120 117.41113 38056 ft 459 kts 232°
2026-05-06 23:15 27.89679 117.35929 38058 ft 457 kts 232°
2026-05-06 23:15 27.85252 117.30768 38051 ft 457 kts 232°
2026-05-06 23:16 27.80838 117.25628 38045 ft 458 kts 232°
2026-05-06 23:16 27.76372 117.20433 38053 ft 462 kts 232°
2026-05-06 23:17 27.71906 117.15251 38068 ft 461 kts 232°
2026-05-06 23:17 27.67444 117.10072 38057 ft 461 kts 232°
2026-05-06 23:18 27.62970 117.04890 38056 ft 460 kts 232°
2026-05-06 23:18 27.58496 116.99713 38054 ft 461 kts 232°
2026-05-06 23:19 27.54029 116.94550 38054 ft 463 kts 232°
2026-05-06 23:19 27.49537 116.89347 38056 ft 462 kts 233°
2026-05-06 23:20 27.45089 116.84105 38055 ft 462 kts 233°
2026-05-06 23:20 27.40654 116.78937 38053 ft 461 kts 233°
2026-05-06 23:21 27.36201 116.73728 38044 ft 461 kts 233°
2026-05-06 23:21 27.31734 116.68522 38047 ft 462 kts 233°
2026-05-06 23:22 27.27269 116.63322 38047 ft 461 kts 233°
2026-05-06 23:22 27.22809 116.58129 38049 ft 462 kts 233°
2026-05-06 23:23 27.18451 116.52919 38051 ft 458 kts 234°
2026-05-06 23:23 27.14091 116.47676 38062 ft 459 kts 234°
2026-05-06 23:24 27.09738 116.42388 38061 ft 461 kts 234°
2026-05-06 23:24 27.05382 116.37133 38071 ft 462 kts 234°
2026-05-06 23:25 27.01007 116.31846 38064 ft 461 kts 234°
2026-05-06 23:25 26.96626 116.26568 38069 ft 460 kts 234°
2026-05-06 23:26 26.92272 116.21321 38057 ft 461 kts 234°
2026-05-06 23:26 26.87897 116.16000 38068 ft 464 kts 234°
2026-05-06 23:27 26.83563 116.10716 38064 ft 463 kts 234°
2026-05-06 23:27 26.79206 116.05425 38063 ft 461 kts 234°
2026-05-06 23:28 26.74853 116.00134 38062 ft 462 kts 234°
2026-05-06 23:28 26.70508 115.94866 38074 ft 463 kts 233°
2026-05-06 23:29 26.66109 115.89539 38070 ft 468 kts 233°
2026-05-06 23:29 26.61691 115.84195 38066 ft 466 kts 233°
2026-05-06 23:30 26.57305 115.78894 38068 ft 465 kts 233°
2026-05-06 23:30 26.52961 115.73650 38065 ft 466 kts 233°
2026-05-06 23:31 26.48548 115.68332 38070 ft 466 kts 232°
2026-05-06 23:31 26.44140 115.63026 38073 ft 469 kts 232°
2026-05-06 23:32 26.39696 115.57678 38057 ft 470 kts 232°
2026-05-06 23:32 26.35255 115.52349 38057 ft 468 kts 232°
2026-05-06 23:33 26.30844 115.47055 38066 ft 468 kts 232°
2026-05-06 23:33 26.26404 115.41735 38049 ft 468 kts 232°
2026-05-06 23:34 26.21943 115.36397 38065 ft 472 kts 232°
2026-05-06 23:34 26.17487 115.31073 38071 ft 471 kts 232°
2026-05-06 23:35 26.13024 115.25742 38068 ft 469 kts 232°
2026-05-06 23:35 26.08563 115.20424 38069 ft 470 kts 232°
2026-05-06 23:36 26.04091 115.15097 38063 ft 471 kts 232°
2026-05-06 23:36 25.99642 115.09811 38060 ft 469 kts 232°
2026-05-06 23:37 25.95189 115.04512 38062 ft 468 kts 232°
2026-05-06 23:37 25.90724 114.99218 38061 ft 469 kts 232°
2026-05-06 23:38 25.86297 114.93968 38065 ft 468 kts 232°
2026-05-06 23:38 25.81815 114.88667 38047 ft 468 kts 231°
2026-05-06 23:39 25.76757 114.84029 38072 ft 478 kts 223°
2026-05-06 23:39 25.71458 114.79545 38072 ft 478 kts 223°
2026-05-06 23:40 25.66181 114.75065 38065 ft 476 kts 223°
2026-05-06 23:40 25.60952 114.70640 38063 ft 475 kts 223°
2026-05-06 23:41 25.55669 114.66170 38065 ft 476 kts 223°
2026-05-06 23:41 25.50382 114.61703 38070 ft 479 kts 223°
2026-05-06 23:42 25.45083 114.57233 38073 ft 479 kts 223°
2026-05-06 23:42 25.39780 114.52762 38071 ft 479 kts 223°
2026-05-06 23:43 25.34502 114.48318 38059 ft 478 kts 223°
2026-05-06 23:43 25.29208 114.43865 38074 ft 479 kts 223°
2026-05-06 23:44 25.23890 114.39398 38076 ft 480 kts 223°
2026-05-06 23:44 25.18572 114.34936 38087 ft 479 kts 223°
2026-05-06 23:45 25.13265 114.30489 38085 ft 478 kts 222°
2026-05-06 23:45 25.07323 114.27058 38074 ft 496 kts 203°
2026-05-06 23:46 25.00524 114.25365 38092 ft 503 kts 197°
2026-05-06 23:46 24.93640 114.23881 38089 ft 502 kts 197°
2026-05-06 23:47 24.86791 114.22381 38092 ft 502 kts 197°
2026-05-06 23:47 24.79924 114.20893 38075 ft 502 kts 197°
2026-05-06 23:48 24.73076 114.19404 38086 ft 502 kts 197°
2026-05-06 23:48 24.66255 114.17925 38091 ft 502 kts 197°
2026-05-06 23:49 24.59395 114.16439 38090 ft 501 kts 197°
2026-05-06 23:49 24.52544 114.14956 38096 ft 501 kts 197°
2026-05-06 23:50 24.46858 114.13727 38098 ft 500 kts 196°
2026-05-06 23:50 24.35581 114.11037 38128 ft 491 kts 206°
2026-05-06 23:51 24.30531 114.08221 38114 ft 485 kts 216°
2026-05-06 23:51 24.24841 114.04329 38087 ft 483 kts 218°
2026-05-06 23:52 24.19126 114.00405 38090 ft 485 kts 217°
2026-05-06 23:52 24.13434 113.96436 38096 ft 484 kts 218°
2026-05-06 23:53 24.07720 113.92482 38101 ft 486 kts 217°
2026-05-06 23:53 24.02044 113.88532 38106 ft 486 kts 218°
2026-05-06 23:54 23.96332 113.84574 38089 ft 486 kts 217°
2026-05-06 23:54 23.90601 113.80602 38092 ft 487 kts 217°
2026-05-06 23:55 23.84892 113.76651 38085 ft 488 kts 217°
2026-05-06 23:55 23.79156 113.72686 38085 ft 487 kts 217°
2026-05-06 23:56 23.73415 113.68720 38089 ft 488 kts 217°
2026-05-06 23:56 23.67702 113.64779 38082 ft 489 kts 217°
2026-05-06 23:57 23.61945 113.60811 38079 ft 488 kts 217°
2026-05-06 23:57 23.56202 113.56842 38079 ft 488 kts 217°
2026-05-06 23:58 23.50517 113.52808 38074 ft 488 kts 217°
2026-05-06 23:58 23.44799 113.48812 38073 ft 489 kts 217°
2026-05-06 23:59 23.39079 113.44791 38072 ft 489 kts 217°
2026-05-06 23:59 23.33373 113.40797 38067 ft 490 kts 217°
2026-05-07 00:00 23.27642 113.36783 38063 ft 489 kts 217°
2026-05-07 00:00 23.21924 113.32786 38065 ft 489 kts 217°
2026-05-07 00:01 23.16194 113.28782 38073 ft 490 kts 217°
2026-05-07 00:01 23.10530 113.24686 38090 ft 484 kts 225°
2026-05-07 00:02 23.06122 113.19288 38118 ft 474 kts 243°
2026-05-07 00:02 23.03605 113.12820 38084 ft 466 kts 261°
2026-05-07 00:03 23.03105 113.05883 38112 ft 459 kts 277°
2026-05-07 00:03 23.03569 112.98943 38085 ft 461 kts 276°
2026-05-07 00:04 23.04061 112.92034 38088 ft 461 kts 276°
2026-05-07 00:04 23.04534 112.85099 38091 ft 461 kts 276°
2026-05-07 00:05 23.05013 112.78155 38073 ft 460 kts 276°
2026-05-07 00:05 23.05486 112.71207 38077 ft 461 kts 276°
2026-05-07 00:06 23.05956 112.64262 38080 ft 461 kts 276°
2026-05-07 00:06 23.06424 112.57303 38076 ft 462 kts 276°
2026-05-07 00:07 23.06883 112.50396 38076 ft 461 kts 275°
2026-05-07 00:07 23.06456 112.43405 38076 ft 465 kts 266°
2026-05-07 00:08 23.05722 112.36421 38088 ft 465 kts 266°
2026-05-07 00:08 23.04994 112.29465 38072 ft 465 kts 266°
2026-05-07 00:09 23.04259 112.22493 38069 ft 465 kts 266°
2026-05-07 00:09 23.03522 112.15520 38070 ft 464 kts 266°
2026-05-07 00:10 23.02782 112.08552 38080 ft 465 kts 266°
2026-05-07 00:10 23.02035 112.01553 38081 ft 467 kts 266°
2026-05-07 00:11 23.01286 111.94557 38077 ft 466 kts 266°
2026-05-07 00:11 23.00538 111.87605 38072 ft 466 kts 266°
2026-05-07 00:12 22.99783 111.80618 38071 ft 465 kts 266°
2026-05-07 00:12 22.99026 111.73636 38065 ft 465 kts 266°
2026-05-07 00:13 22.98265 111.66656 38056 ft 465 kts 266°
2026-05-07 00:13 22.97503 111.59678 38067 ft 466 kts 266°
2026-05-07 00:14 22.96732 111.52736 38070 ft 465 kts 266°
2026-05-07 00:14 22.95946 111.45749 38060 ft 466 kts 266°
2026-05-07 00:15 22.95163 111.38766 38066 ft 466 kts 266°
2026-05-07 00:15 22.94377 111.31813 38063 ft 466 kts 266°
2026-05-07 00:16 22.93585 111.24828 38060 ft 467 kts 266°
2026-05-07 00:16 22.92786 111.17810 38060 ft 467 kts 265°
2026-05-07 00:17 22.91987 111.10819 38057 ft 467 kts 266°
2026-05-07 00:17 22.91191 111.03883 38057 ft 464 kts 266°
2026-05-07 00:18 22.90390 110.96923 38053 ft 464 kts 266°
2026-05-07 00:18 22.89587 110.89983 38047 ft 464 kts 266°
2026-05-07 00:19 22.88780 110.83030 38045 ft 465 kts 265°
2026-05-07 00:19 22.87969 110.76069 38040 ft 465 kts 265°
2026-05-07 00:20 22.87159 110.69142 38046 ft 466 kts 265°
2026-05-07 00:20 22.86335 110.62126 38050 ft 466 kts 265°
2026-05-07 00:21 22.85513 110.55152 38045 ft 466 kts 265°
2026-05-07 00:21 22.84762 110.48221 38046 ft 465 kts 266°
2026-05-07 00:22 22.84008 110.41234 38050 ft 465 kts 265°
2026-05-07 00:22 22.83246 110.34289 38048 ft 465 kts 266°
2026-05-07 00:23 22.82485 110.27320 38043 ft 466 kts 266°
2026-05-07 00:23 22.81715 110.20333 38046 ft 466 kts 266°
2026-05-07 00:24 22.80950 110.13398 38045 ft 466 kts 265°
2026-05-07 00:24 22.80176 110.06425 38043 ft 466 kts 265°
2026-05-07 00:25 22.79397 109.99429 38044 ft 466 kts 265°
2026-05-07 00:25 22.78619 109.92462 38037 ft 466 kts 265°
2026-05-07 00:26 22.77835 109.85479 38033 ft 466 kts 265°
2026-05-07 00:26 22.77053 109.78538 38029 ft 467 kts 265°
2026-05-07 00:27 22.76261 109.71540 38030 ft 468 kts 265°
2026-05-07 00:27 22.75465 109.64530 38027 ft 467 kts 265°
2026-05-07 00:28 22.74669 109.57548 38028 ft 467 kts 265°
2026-05-07 00:28 22.73875 109.50610 38034 ft 467 kts 265°
2026-05-07 00:29 22.73071 109.43614 38034 ft 467 kts 264°
2026-05-07 00:30 22.71475 109.29698 38030 ft 464 kts 264°
2026-05-07 00:30 22.70687 109.22747 38030 ft 465 kts 265°
2026-05-07 00:31 22.69912 109.15818 38037 ft 467 kts 264°
2026-05-07 00:31 22.69119 109.08787 38038 ft 468 kts 264°
2026-05-07 00:32 22.68370 109.01826 38042 ft 467 kts 264°
2026-05-07 00:32 22.67595 108.94841 38037 ft 466 kts 264°
2026-05-07 00:33 22.66829 108.87866 38032 ft 466 kts 264°
2026-05-07 00:33 22.66054 108.80888 38031 ft 466 kts 264°
2026-05-07 00:34 22.65278 108.73906 38035 ft 466 kts 264°
2026-05-07 00:34 22.64500 108.66949 38031 ft 465 kts 264°
2026-05-07 00:35 22.63724 108.60032 38029 ft 464 kts 264°
2026-05-07 00:35 22.63071 108.54230 38031 ft 469 kts 264°
2026-05-07 00:36 22.62276 108.47192 38038 ft 470 kts 264°
2026-05-07 00:36 22.61351 108.39047 38039 ft 467 kts 264°
2026-05-07 00:37 22.60686 108.33205 38040 ft 466 kts 264°
2026-05-07 00:37 22.59893 108.26266 38041 ft 466 kts 264°
2026-05-07 00:38 22.59092 108.19295 38041 ft 466 kts 264°
2026-05-07 00:38 22.58131 108.12357 38044 ft 466 kts 260°
2026-05-07 00:39 22.56918 108.05440 38041 ft 468 kts 260°
2026-05-07 00:39 22.55705 107.98558 38038 ft 468 kts 260°
2026-05-07 00:40 22.54481 107.91638 38035 ft 467 kts 260°
2026-05-07 00:40 22.53257 107.84727 38031 ft 467 kts 260°
2026-05-07 00:41 22.52031 107.77826 38030 ft 466 kts 260°
2026-05-07 00:41 22.50814 107.70989 38027 ft 466 kts 260°
2026-05-07 00:42 22.49583 107.64099 38021 ft 466 kts 260°
2026-05-07 00:42 22.48348 107.57201 38142 ft 466 kts 260°
2026-05-07 00:43 22.47734 107.53770 38456 ft 464 kts 260°
2026-05-07 00:43 22.47118 107.50341 38690 ft 464 kts 260°
2026-05-07 00:43 22.46504 107.46926 38864 ft 464 kts 260°
2026-05-07 00:43 22.45887 107.43500 39034 ft 464 kts 259°
2026-05-07 00:44 22.45276 107.40108 39196 ft 464 kts 259°
2026-05-07 00:44 22.44658 107.36682 39406 ft 463 kts 259°
2026-05-07 00:44 22.44040 107.33266 39592 ft 463 kts 259°
2026-05-07 00:44 22.43422 107.29850 39751 ft 462 kts 259°
2026-05-07 00:45 22.42803 107.26436 39919 ft 462 kts 259°
2026-05-07 00:45 22.42187 107.23025 40092 ft 462 kts 259°
2026-05-07 00:45 22.41585 107.19657 40255 ft 462 kts 260°
2026-05-07 00:45 22.40977 107.16243 40417 ft 462 kts 260°
2026-05-07 00:46 22.40362 107.12821 40576 ft 462 kts 259°
2026-05-07 00:46 22.39746 107.09411 40727 ft 462 kts 259°
2026-05-07 00:46 22.39132 107.06002 40886 ft 462 kts 260°
2026-05-07 00:46 22.38518 107.02588 41056 ft 461 kts 260°
2026-05-07 00:47 22.37903 106.99188 41197 ft 461 kts 260°
2026-05-07 00:47 22.37288 106.95779 41339 ft 461 kts 260°
2026-05-07 00:47 22.36678 106.92429 41480 ft 461 kts 258°
2026-05-07 00:47 22.35722 106.89116 41619 ft 462 kts 248°
2026-05-07 00:48 22.34242 106.86028 41722 ft 464 kts 238°
2026-05-07 00:48 22.32269 106.83254 41837 ft 467 kts 228°
2026-05-07 00:48 22.27645 106.78280 41932 ft 471 kts 227°
2026-05-07 00:49 22.22958 106.73307 41942 ft 471 kts 227°
2026-05-07 00:49 22.18286 106.68335 41933 ft 471 kts 226°
2026-05-07 00:50 22.13274 106.63829 41940 ft 471 kts 221°
2026-05-07 00:50 22.08192 106.59366 41939 ft 471 kts 221°
2026-05-07 00:51 22.03096 106.54939 41938 ft 469 kts 221°
2026-05-07 00:51 21.98025 106.50514 41937 ft 469 kts 221°
2026-05-07 00:52 21.92977 106.46101 41933 ft 468 kts 221°
2026-05-07 00:52 21.87932 106.41650 41943 ft 470 kts 221°
2026-05-07 00:53 21.82837 106.37187 41950 ft 472 kts 221°
2026-05-07 00:53 21.77775 106.32743 41950 ft 472 kts 221°
2026-05-07 00:54 21.72694 106.28293 41942 ft 470 kts 221°
2026-05-07 00:54 21.67620 106.23851 41940 ft 470 kts 221°
2026-05-07 00:55 21.62536 106.19404 41924 ft 470 kts 221°
2026-05-07 00:55 21.57455 106.14965 41928 ft 470 kts 221°
2026-05-07 00:56 21.52377 106.10532 41922 ft 471 kts 221°
2026-05-07 00:56 21.47325 106.06126 41928 ft 471 kts 221°
2026-05-07 00:57 21.42233 106.01689 41930 ft 472 kts 221°
2026-05-07 00:57 21.37116 105.97235 41931 ft 472 kts 221°
2026-05-07 00:58 21.32040 105.92821 41917 ft 471 kts 221°
2026-05-07 00:58 21.26952 105.88399 41910 ft 469 kts 221°
2026-05-07 00:59 21.22250 105.83633 41912 ft 464 kts 236°
2026-05-07 00:59 21.20531 105.80712 41916 ft 463 kts 246°
2026-05-07 01:00 21.18202 105.74279 41918 ft 464 kts 251°
2026-05-07 01:00 21.16026 105.67771 41922 ft 464 kts 251°
2026-05-07 01:01 21.13845 105.61303 41918 ft 464 kts 251°
2026-05-07 01:01 21.11662 105.54818 41923 ft 461 kts 251°
2026-05-07 01:02 21.09483 105.48363 41924 ft 460 kts 251°
2026-05-07 01:02 21.07298 105.41895 41926 ft 463 kts 251°
2026-05-07 01:03 21.05114 105.35443 41957 ft 464 kts 251°
2026-05-07 01:03 21.02903 105.28917 41931 ft 465 kts 251°
2026-05-07 01:04 21.00699 105.22423 41927 ft 462 kts 251°
2026-05-07 01:04 20.98517 105.16002 41931 ft 461 kts 251°
2026-05-07 01:05 20.96325 105.09560 41952 ft 461 kts 251°
2026-05-07 01:05 20.94128 105.03113 41959 ft 460 kts 251°
2026-05-07 01:06 20.91928 104.96667 41953 ft 461 kts 251°
2026-05-07 01:06 20.89722 104.90211 41954 ft 461 kts 251°
2026-05-07 01:07 20.87536 104.83824 41958 ft 459 kts 251°
2026-05-07 01:07 20.85341 104.77418 41960 ft 459 kts 251°
2026-05-07 01:08 20.83140 104.71002 41959 ft 459 kts 251°
2026-05-07 01:08 20.80930 104.64600 41958 ft 459 kts 250°
2026-05-07 01:09 20.78713 104.58208 41962 ft 459 kts 251°
2026-05-07 01:09 20.76511 104.51851 41959 ft 458 kts 250°
2026-05-07 01:10 20.74287 104.45460 41958 ft 459 kts 250°
2026-05-07 01:10 20.71996 104.39082 41959 ft 459 kts 250°
2026-05-07 01:11 20.69741 104.32735 41960 ft 460 kts 250°
2026-05-07 01:11 20.67457 104.26349 41954 ft 460 kts 250°
2026-05-07 01:12 20.65178 104.19971 41947 ft 460 kts 250°
2026-05-07 01:12 20.62886 104.13572 41949 ft 462 kts 250°
2026-05-07 01:13 20.60586 104.07156 41960 ft 463 kts 250°
2026-05-07 01:13 20.58280 104.00733 41963 ft 463 kts 250°
2026-05-07 01:14 20.55974 103.94318 41964 ft 462 kts 250°
2026-05-07 01:14 20.53673 103.87924 41958 ft 461 kts 250°
2026-05-07 01:15 20.51370 103.81536 41954 ft 461 kts 250°
2026-05-07 01:15 20.49083 103.75200 41968 ft 461 kts 250°
2026-05-07 01:16 20.46778 103.68819 41984 ft 461 kts 250°
2026-05-07 01:16 20.44469 103.62441 41968 ft 461 kts 250°
2026-05-07 01:17 20.42152 103.56046 41964 ft 461 kts 250°
2026-05-07 01:17 20.39840 103.49672 41972 ft 461 kts 250°
2026-05-07 01:18 20.37540 103.43343 41969 ft 460 kts 250°
2026-05-07 01:18 20.35223 103.36972 41968 ft 460 kts 249°
2026-05-07 01:19 20.32905 103.30607 41963 ft 460 kts 249°
2026-05-07 01:19 20.30584 103.24242 41965 ft 460 kts 249°
2026-05-07 01:20 20.28278 103.17928 41955 ft 460 kts 250°
2026-05-07 01:20 20.25950 103.11560 41958 ft 461 kts 249°
2026-05-07 01:21 20.23617 103.05188 41947 ft 461 kts 249°
2026-05-07 01:21 20.21282 102.98817 41949 ft 461 kts 249°
2026-05-07 01:22 20.18960 102.92492 41949 ft 461 kts 249°
2026-05-07 01:22 20.16618 102.86120 41944 ft 462 kts 249°
2026-05-07 01:23 20.14274 102.79750 41943 ft 462 kts 249°
2026-05-07 01:23 20.11942 102.73418 41949 ft 460 kts 249°
2026-05-07 01:24 20.09604 102.67082 41940 ft 459 kts 249°
2026-05-07 01:24 20.07276 102.60778 41942 ft 459 kts 249°
2026-05-07 01:25 20.04934 102.54447 41939 ft 460 kts 249°
2026-05-07 01:25 20.02971 102.49144 41936 ft 460 kts 249°
2026-05-07 01:26 20.00638 102.42850 41927 ft 461 kts 249°
2026-05-07 01:26 19.98282 102.36503 41942 ft 459 kts 249°
2026-05-07 01:27 19.95934 102.30184 41927 ft 458 kts 249°
2026-05-07 01:27 19.93607 102.23931 41929 ft 458 kts 249°
2026-05-07 01:28 19.91103 102.17716 41948 ft 458 kts 240°
2026-05-07 01:28 19.87225 102.12298 41913 ft 461 kts 232°
2026-05-07 01:29 19.83079 102.07101 41909 ft 461 kts 232°
2026-05-07 01:29 19.78942 102.01886 41914 ft 461 kts 231°
2026-05-07 01:30 19.74828 101.96719 41919 ft 460 kts 231°
2026-05-07 01:30 19.70687 101.91518 41939 ft 463 kts 232°
2026-05-07 01:31 19.66506 101.86272 41942 ft 466 kts 231°
2026-05-07 01:31 19.62316 101.81020 41929 ft 465 kts 231°
2026-05-07 01:32 19.58135 101.75783 41935 ft 465 kts 231°
2026-05-07 01:32 19.53953 101.70551 41929 ft 465 kts 231°
2026-05-07 01:33 19.49776 101.65328 41941 ft 462 kts 231°
2026-05-07 01:33 19.45654 101.60180 41927 ft 460 kts 231°
2026-05-07 01:34 19.41506 101.55002 41932 ft 460 kts 231°
2026-05-07 01:34 19.37351 101.49821 41947 ft 462 kts 231°
2026-05-07 01:35 19.33185 101.44631 41952 ft 463 kts 231°
2026-05-07 01:35 19.29038 101.39468 41940 ft 463 kts 231°
2026-05-07 01:36 19.24858 101.34275 41953 ft 463 kts 231°
2026-05-07 01:36 19.20693 101.29088 41944 ft 462 kts 231°
2026-05-07 01:37 19.16563 101.23937 41938 ft 456 kts 232°
2026-05-07 01:37 19.12563 101.18719 41948 ft 457 kts 232°
2026-05-07 01:38 19.08485 101.13528 41944 ft 461 kts 232°
2026-05-07 01:38 19.04405 101.08286 41938 ft 462 kts 232°
2026-05-07 01:39 19.00317 101.03047 41938 ft 461 kts 232°
2026-05-07 01:39 18.96252 100.97854 41940 ft 461 kts 232°
2026-05-07 01:40 18.92162 100.92617 41941 ft 461 kts 232°
2026-05-07 01:40 18.88066 100.87393 41944 ft 461 kts 232°
2026-05-07 01:41 18.84001 100.82199 41948 ft 461 kts 232°
2026-05-07 01:41 18.79718 100.77166 41960 ft 462 kts 223°
2026-05-07 01:42 18.74832 100.72679 41954 ft 467 kts 223°
2026-05-07 01:42 18.69924 100.68187 41944 ft 466 kts 223°
2026-05-07 01:43 18.65036 100.63703 41932 ft 465 kts 223°
2026-05-07 01:43 18.60145 100.59229 41923 ft 465 kts 223°
2026-05-07 01:44 18.55300 100.54796 41898 ft 462 kts 223°
2026-05-07 01:44 18.50471 100.50383 41903 ft 459 kts 223°
2026-05-07 01:45 18.45639 100.45969 41898 ft 459 kts 223°
2026-05-07 01:45 18.40805 100.41558 41890 ft 460 kts 223°
2026-05-07 01:46 18.35960 100.37140 41886 ft 460 kts 223°
2026-05-07 01:46 18.31114 100.32726 41890 ft 460 kts 223°
2026-05-07 01:47 18.26300 100.28342 41911 ft 460 kts 223°
2026-05-07 01:47 18.21454 100.23934 41910 ft 460 kts 223°
2026-05-07 01:48 18.16619 100.19531 41913 ft 459 kts 225°
2026-05-07 01:48 18.12743 100.14258 41937 ft 458 kts 244°
2026-05-07 01:49 18.10369 100.08083 41921 ft 459 kts 250°
2026-05-07 01:49 18.08140 100.01801 41919 ft 458 kts 250°
2026-05-07 01:50 18.05900 99.95528 41914 ft 458 kts 250°
2026-05-07 01:50 18.03663 99.89259 41904 ft 458 kts 250°
2026-05-07 01:51 18.01425 99.83000 41903 ft 457 kts 250°
2026-05-07 01:51 17.99208 99.76803 41904 ft 454 kts 250°
2026-05-07 01:52 17.96982 99.70590 41899 ft 453 kts 249°
2026-05-07 01:52 17.94755 99.64379 41904 ft 454 kts 249°
2026-05-07 01:53 17.92525 99.58170 41908 ft 455 kts 249°
2026-05-07 01:53 17.90302 99.51985 41911 ft 455 kts 249°
2026-05-07 01:54 17.88060 99.45752 41913 ft 455 kts 249°
2026-05-07 01:54 17.85814 99.39521 41908 ft 457 kts 249°
2026-05-07 01:55 17.83561 99.33274 41918 ft 458 kts 249°
2026-05-07 01:55 17.81301 99.27014 41919 ft 458 kts 249°
2026-05-07 01:56 17.79057 99.20808 41920 ft 457 kts 249°
2026-05-07 01:56 17.76805 99.14583 41916 ft 456 kts 249°
2026-05-07 01:57 17.74548 99.08356 41916 ft 456 kts 249°
2026-05-07 01:57 17.72285 99.02124 41924 ft 458 kts 249°
2026-05-07 01:58 17.70037 98.95915 41920 ft 458 kts 249°
2026-05-07 01:58 17.67760 98.89665 41927 ft 459 kts 249°
2026-05-07 01:59 17.65486 98.83412 41927 ft 459 kts 249°
2026-05-07 01:59 17.63207 98.77158 41937 ft 459 kts 249°
2026-05-07 02:00 17.60926 98.70906 41929 ft 459 kts 249°
2026-05-07 02:00 17.58639 98.64642 41940 ft 461 kts 249°
2026-05-07 02:01 17.56360 98.58408 41949 ft 460 kts 249°
2026-05-07 02:01 17.54062 98.52127 41941 ft 460 kts 249°
2026-05-07 02:02 17.51783 98.45908 41939 ft 460 kts 249°
2026-05-07 02:02 17.49486 98.39645 41941 ft 460 kts 249°
2026-05-07 02:03 17.47184 98.33379 41937 ft 460 kts 249°
2026-05-07 02:03 17.44883 98.27116 41945 ft 461 kts 249°
2026-05-07 02:04 17.42597 98.20905 41346 ft 458 kts 249°
2026-05-07 02:04 17.41442 98.17771 40671 ft 459 kts 249°
2026-05-07 02:04 17.40289 98.14644 40107 ft 457 kts 249°
2026-05-07 02:04 17.39170 98.11527 39539 ft 456 kts 254°
2026-05-07 02:05 17.38486 98.08294 38966 ft 455 kts 264°
2026-05-07 02:05 17.38289 98.05053 38336 ft 456 kts 267°
2026-05-07 02:05 17.38154 98.01716 37700 ft 458 kts 268°
2026-05-07 02:05 17.38031 97.98360 37080 ft 464 kts 268°
2026-05-07 02:06 17.37905 97.94958 36425 ft 469 kts 268°
2026-05-07 02:06 17.37769 97.91519 35737 ft 474 kts 268°
2026-05-07 02:06 17.37630 97.88058 35031 ft 477 kts 268°
2026-05-07 02:06 17.37495 97.84573 34289 ft 480 kts 268°
2026-05-07 02:07 17.37358 97.81069 33475 ft 483 kts 268°
2026-05-07 02:07 17.37079 97.74031 31841 ft 484 kts 268°
2026-05-07 02:07 17.36938 97.70503 30997 ft 486 kts 268°
2026-05-07 02:08 17.36796 97.66954 30090 ft 488 kts 267°
2026-05-07 02:08 17.36649 97.63401 29112 ft 488 kts 267°
2026-05-07 02:08 17.36511 97.59848 28186 ft 486 kts 267°
2026-05-07 02:08 17.36371 97.56369 27291 ft 483 kts 267°
2026-05-07 02:09 17.36226 97.52865 26406 ft 479 kts 267°
2026-05-07 02:09 17.36084 97.49427 25543 ft 465 kts 267°
2026-05-07 02:09 17.35948 97.46093 24694 ft 451 kts 267°
2026-05-07 02:09 17.35815 97.42853 23881 ft 440 kts 266°
2026-05-07 02:10 17.35684 97.39691 23036 ft 429 kts 266°
2026-05-07 02:10 17.35557 97.36649 22274 ft 416 kts 266°
2026-05-07 02:10 17.35433 97.33673 21936 ft 402 kts 266°
2026-05-07 02:10 17.35313 97.30802 21799 ft 386 kts 266°
2026-05-07 02:11 17.35197 97.28046 21673 ft 370 kts 266°
2026-05-07 02:11 17.35085 97.25401 21540 ft 356 kts 266°
2026-05-07 02:11 17.34978 97.22863 21413 ft 342 kts 266°
2026-05-07 02:11 17.34875 97.20422 21287 ft 329 kts 266°
2026-05-07 02:12 17.34775 97.18071 21173 ft 317 kts 266°
2026-05-07 02:12 17.34710 97.16555 21101 ft 314 kts 266°
2026-05-07 02:12 17.34611 97.14261 21008 ft 317 kts 266°
2026-05-07 02:12 17.34478 97.11165 20706 ft 321 kts 266°
2026-05-07 02:13 17.34411 97.09595 20504 ft 317 kts 266°
2026-05-07 02:13 17.34312 97.07300 20212 ft 314 kts 266°
2026-05-07 02:13 17.34214 97.05016 19894 ft 316 kts 266°
2026-05-07 02:13 17.34114 97.02704 19492 ft 319 kts 266°
2026-05-07 02:14 17.34014 97.00420 19077 ft 318 kts 266°
2026-05-07 02:14 17.33914 96.98113 18662 ft 317 kts 266°
2026-05-07 02:14 17.33813 96.95811 18246 ft 316 kts 266°
2026-05-07 02:14 17.33713 96.93522 17792 ft 314 kts 266°
2026-05-07 02:15 17.33614 96.91251 17381 ft 311 kts 266°
2026-05-07 02:15 17.33515 96.89003 16971 ft 308 kts 266°
2026-05-07 02:15 17.33416 96.86778 16565 ft 305 kts 266°
2026-05-07 02:15 17.33319 96.84567 16151 ft 302 kts 266°
2026-05-07 02:16 17.33221 96.82380 15762 ft 299 kts 266°
2026-05-07 02:16 17.33126 96.80213 15370 ft 297 kts 266°
2026-05-07 02:16 17.33031 96.78093 14988 ft 295 kts 266°
2026-05-07 02:16 17.32935 96.75956 14601 ft 293 kts 266°
2026-05-07 02:17 17.32840 96.73821 14211 ft 292 kts 266°
2026-05-07 02:17 17.32745 96.71704 13832 ft 291 kts 267°
2026-05-07 02:17 17.32650 96.69591 13425 ft 289 kts 267°
2026-05-07 02:17 17.32556 96.67495 13036 ft 287 kts 267°
2026-05-07 02:18 17.32462 96.65416 12660 ft 285 kts 267°
2026-05-07 02:18 17.32369 96.63347 12284 ft 284 kts 267°
2026-05-07 02:18 17.32276 96.61310 11914 ft 282 kts 267°
2026-05-07 02:18 17.32182 96.59261 11543 ft 281 kts 267°
2026-05-07 02:19 17.32089 96.57218 11172 ft 280 kts 267°
2026-05-07 02:19 17.31997 96.55186 10804 ft 278 kts 267°
2026-05-07 02:19 17.31885 96.53168 10435 ft 276 kts 263°
2026-05-07 02:19 17.31197 96.51320 10085 ft 275 kts 234°
2026-05-07 02:20 17.29965 96.49783 9715 ft 275 kts 228°
2026-05-07 02:20 17.28669 96.48354 9341 ft 274 kts 225°
2026-05-07 02:20 17.27356 96.46916 8982 ft 272 kts 226°
2026-05-07 02:20 17.26079 96.45471 8623 ft 268 kts 227°
2026-05-07 02:21 17.24826 96.44038 8258 ft 265 kts 227°
2026-05-07 02:21 17.23578 96.42627 7907 ft 264 kts 227°
2026-05-07 02:21 17.22331 96.41222 7564 ft 263 kts 227°
2026-05-07 02:21 17.21091 96.39821 7216 ft 261 kts 227°
2026-05-07 02:22 17.19865 96.38434 6871 ft 259 kts 227°
2026-05-07 02:22 17.18640 96.37047 6529 ft 258 kts 227°
2026-05-07 02:22 17.17433 96.35684 6274 ft 255 kts 227°
2026-05-07 02:22 17.16224 96.34322 5934 ft 255 kts 227°
2026-05-07 02:23 17.15019 96.32962 5597 ft 254 kts 227°
2026-05-07 02:23 17.13828 96.31618 5263 ft 250 kts 226°
2026-05-07 02:23 17.12653 96.30299 4933 ft 246 kts 226°
2026-05-07 02:23 17.11492 96.28992 4611 ft 244 kts 226°
2026-05-07 02:24 17.10348 96.27707 4325 ft 240 kts 226°
2026-05-07 02:24 17.09281 96.26424 4012 ft 232 kts 229°
2026-05-07 02:24 17.08133 96.25274 3694 ft 225 kts 218°
2026-05-07 02:24 17.06858 96.24364 3403 ft 219 kts 213°
2026-05-07 02:25 17.05599 96.23499 3106 ft 213 kts 214°
2026-05-07 02:25 17.04379 96.22666 2798 ft 208 kts 214°
2026-05-07 02:25 17.03168 96.21835 2479 ft 205 kts 214°
2026-05-07 02:25 17.02012 96.21049 2234 ft 195 kts 214°
2026-05-07 02:26 17.00900 96.20283 1980 ft 187 kts 214°
2026-05-07 02:26 16.99833 96.19553 1736 ft 179 kts 214°
2026-05-07 02:26 16.98820 96.18859 1513 ft 170 kts 213°
2026-05-07 02:26 16.97853 96.18198 1300 ft 163 kts 214°
2026-05-07 02:27 16.96910 96.17553 1091 ft 162 kts 213°
2026-05-07 02:27 16.95973 96.16912 903 ft 160 kts 213°
2026-05-07 02:27 16.95050 96.16273 695 ft 159 kts 214°
2026-05-07 02:27 16.94132 96.15644 489 ft 157 kts 213°
2026-05-07 02:28 16.93211 96.15017 274 ft 157 kts 214°
2026-05-07 02:28 16.92310 96.14401 92 ft 156 kts 213°
2026-05-07 02:28 16.91462 96.13828 67 ft 130 kts 213°
2026-05-07 02:28 16.90894 96.13441 96 ft 70 kts 212°
2026-05-07 02:29 16.90541 96.13202 103 ft 45 kts 213°
2026-05-07 02:29 16.90316 96.13049 106 ft 36 kts 213°
2026-05-07 02:29 16.90120 96.12917 109 ft 31 kts 213°
2026-05-07 02:29 16.89948 96.12800 116 ft 30 kts 213°
2026-05-07 02:30 16.89816 96.12712 121 ft 3 kts 195°
2026-05-07 02:30 16.89806 96.12718 119 ft 3 kts 142°
2026-05-07 02:30 16.89768 96.12760 119 ft 11 kts 128°
2026-05-07 02:30 16.89734 96.12845 120 ft 14 kts 92°
2026-05-07 02:31 16.89788 96.12927 116 ft 15 kts 32°
2026-05-07 02:31 16.89889 96.12994 113 ft 20 kts 33°
2026-05-07 02:31 16.90012 96.13077 112 ft 22 kts 33°
2026-05-07 02:31 16.90084 96.13134 110 ft 2 kts 69°
2026-05-07 02:32 16.90078 96.13157 109 ft 5 kts 117°
2026-05-07 02:32 16.90052 96.13198 110 ft 8 kts 123°
2026-05-07 02:32 16.90025 96.13242 110 ft 3 kts 122°
2026-05-07 02:32 16.90025 96.13243 110 ft 0 kts 122°